Location: Newark
(41.8922°N, 9.0050°E)
Time: 14:03:27
(UTC+00:00)

ISS - Visible Passes

Search period start: 24 January 2020 00:00
Search period end: 03 February 2020 00:00
Orbit: 415 x 423 km, 51.6° (Epoch: 25 January)

Date Brightness Start Highest point End Pass type
(mag) Time Alt. Az. Time Alt. Az. Time Alt. Az.
24 Jan -3.3 17:24:06 10° WSW 17:27:26 55° NNW 17:30:00 16° NE visible
24 Jan -0.7 19:02:21 10° WNW 19:02:58 13° NW 19:02:58 13° NW visible
25 Jan -1.9 18:14:23 10° WNW 18:17:05 22° NNW 18:17:29 21° N visible
26 Jan -2.2 17:26:26 10° W 17:29:24 27° NNW 17:31:56 12° NE visible
26 Jan -0.5 19:04:53 10° NW 19:04:55 10° NW 19:04:55 10° NW visible
27 Jan -1.5 18:17:00 10° NW 18:19:15 16° N 18:19:20 16° N visible
28 Jan -1.7 17:29:02 10° WNW 17:31:29 18° NNW 17:33:44 11° NNE visible
29 Jan -1.5 18:19:16 10° NW 18:21:06 16° N 18:21:06 16° N visible
30 Jan -1.5 17:31:29 10° NW 17:33:37 16° N 17:35:30 11° NE visible
31 Jan -1.7 18:20:59 10° NW 18:22:53 18° N 18:22:53 18° N visible
01 Feb -1.8 17:33:25 10° NW 17:35:45 17° N 17:37:20 13° NE visible
01 Feb -0.7 19:09:56 10° NW 19:10:18 12° NW 19:10:18 12° NW visible
02 Feb -2.4 18:22:25 10° NW 18:24:48 28° N 18:24:48 28° N visible
